Location: Bun
(42.9667°N, 0.1500°W)
Time: 15:09:40
(UTC+00:00)

Spot 1 - Pass Details

Date: 03 February 2023
Orbit: 575 x 772 km, 98.8° (Epoch: 24 March)

Event Time Altitude Azimuth Distance (km) Brightness Sun altitude
Exits shadow 18:48:40 31° 51° (NE) 1,032 4.7 -17.3°
Maximum altitude 18:50:08 44° 100° (E) 805 4.2 -17.6°
Drops below altitude 10° 18:54:00 10° 173° (S) 1,882 6.5 -18.3°
Sets 18:56:14 0° 180° (S) 2,786 7.5 -18.7°
